Location: ??????
(38.0677°N, 22.9870°E)
Time: 11:16:50
(UTC+00:00)

SL-27 R/B - Pass Details

Date: 23 May 2024
Orbit: 328 x 352 km, 74.7° (Epoch: 18 June)

Event Time Altitude Azimuth Distance (km) Brightness Sun altitude
Exits shadow 01:13:02 28° 328° (NNW) 655 3.3 -19.2°
Drops below altitude 10° 01:14:50 10° 359° (N) 1,262 5.3 -19.0°
Sets 01:16:52 0° 9° (N) 2,101 6.8 -18.7°
